Weather WX

World > North America > United States > Mississippi

Picayune, Mississippi Regional Weather

Lat: 30.53N, Lon: 89.68W
Wx Zone: MSZ077
Warning FLW WEATHER ALERT - (More Info. Click Here) Warning
Feedback

Picayune, MS Regional Weather

Expires:201906182100;;695519
ASUS44 KJAN 182010
RWRMS 

MISSISSIPPI HOURLY WEATHER ROUNDUP
NATIONAL WEATHER SERVICE JACKSON MS
300 PM CDT TUE JUN 18 2019

NOTE: "FAIR: INDICATES FEW OR NO CLOUDS BELOW 12,000 FEET WITH NO
SIGNIFICANT WEATHER AND/OR OBSTRUCTIONS TO VISIBILITY.


MSZ059>079-182100-
SOUTH MISSISSIPPI
  
CITY           SKY/WX    TMP DP  RH WIND       PRES   REMARKS
BROOKHAVEN     FAIR      88  72  58 E5        29.92F HX  94           
HATTIESBURG    FAIR      86  74  67 S9        29.91F HX  94           
LAUREL         PTCLDY    85  73  67 NW5       29.89F HX  91           
MCCOMB         FAIR      88  71  57 VRB7      29.90F HX  94           
NATCHEZ        FAIR      87  72  60 S6        29.90F HX  93           
PINE BELT      FAIR      87  74  64 VRB6      29.91F HX  95           
$$


SKY/WX - Weather  TMP - Temperature  DP - Dew Point  RH - Relative Humidity
WIND - Wind Direction/Speed PRES - Barometric Pressure VSB - Visibility
WCI - Wind Chill Index E13G22 Wind - East Wind 13 mph/Gusts of 22 mph